Theta_e
331 334 340 342 344 343 343 344 347 349 356 359 362 361 363 362 362 364 355 358 358 354 356 357 365 363 365 366 365 365 370 368 365
330 331 339 342 344 344 343 344 346 348 355 360 363 362 364 365 361 362 361 357 362 364 361 360 371 365 364 366 368 367 367 363 365
328 333 336 341 343 345 345 345 346 350 355 360 363 365 365 365 365 362 361 364 358 360 366 368 372 366 366 366 365 368 366 365 365
326 331 335 339 342 346 347 346 346 349 352 360 363 365 366 365 366 365 363 359 362 361 364 366 372 370 365 364 365 365 367 364 363
326 330 336 339 342 345 347 347 346 348 351 354 362 365 366 365 367 368 366 362 362 364 366 368 367 369 367 365 363 365 365 363 359
328 333 336 338 340 344 346 348 348 348 351 352 357 365 365 366 366 367 367 366 364 365 364 367 367 370 366 364 364 363 364 364 363
328 332 332 337 339 341 347 349 350 352 351 353 356 360 364 364 366 366 367 368 368 366 367 364 367 367 367 367 365 364 363 364 364
328 331 334 340 338 339 346 350 352 354 354 355 356 357 360 362 365 368 368 368 368 369 367 367 366 367 367 366 366 364 363 362 364
328 330 332 336 340 344 347 349 354 354 355 357 358 358 358 363 364 365 367 367 367 368 368 367 368 367 367 366 365 348 343 357 362
326 325 329 335 338 346 357 350 355 356 355 358 360 358 362 363 364 364 366 367 367 366 367 368 367 367 368 366 367 341 337 342 361
323 325 327 333 330 334 343 339 341 357 359 360 359 361 361 365 365 364 366 367 367 367 366 367 367 366 367 367 367 340 333 337 357
328 332 334 334 331 331 342 339 342 352 353 358 361 359 360 362 366 365 365 366 366 367 367 367 367 368 367 366 366 336 332 334 353
333 336 339 340 340 339 341 343 339 355 350 358 357 359 360 365 363 365 365 365 366 369 369 366 367 367 368 357 367 340 328 334 359
334 336 337 342 343 342 347 351 350 362 364 356 360 361 364 364 365 363 367 368 368 368 368 367 366 366 367 368 364 364 325 323 361
331 335 336 340 344 346 350 352 353 354 360 366 376 365 365 365 367 363 365 367 368 369 368 365 365 364 365 366 368 341 326 320 327
328 332 337 338 345 350 353 352 369 363 364 375 376 375 369 367 367 367 366 367 366 366 367 364 363 361 361 361 365 366 327 319 319
327 330 334 336 341 347 352 366 366 368 371 371 372 372 370 369 368 366 367 367 367 365 364 363 361 360 358 361 361 360 365 342 332
324 328 335 337 344 350 355 366 369 367 370 369 366 369 367 367 366 364 366 354 347 362 345 337 362 359 360 357 357 352 331 336 354
321 324 334 335 347 348 353 360 360 364 368 371 369 365 364 360 360 364 363 344 337 304 304 301 300 303 333 328 311 304 303 303 303
319 323 331 335 343 349 353 358 354 357 365 370 367 366 362 359 352 361 360 353 347 333 314 300 299 299 301 303 300 300 300 301 301
Wind_Speed
21 21 24 26 25 24 24 22 23 22 23 22 21 21 19 17 16 9 11 10 7 9 7 9 12 14 11 10 11 8 6 6 5
23 22 24 26 26 24 24 23 23 23 22 22 23 23 18 17 17 16 13 13 9 6 8 6 8 15 12 11 8 10 9 6 7
19 22 23 24 24 25 23 25 23 23 21 23 23 22 20 17 18 18 16 11 13 11 8 8 5 14 13 12 11 11 10 8 7
15 20 23 22 23 24 24 23 22 22 21 22 21 21 21 20 19 18 17 15 13 14 11 9 7 9 12 12 12 11 10 10 9
19 16 23 21 22 23 22 23 23 24 22 21 22 20 19 19 17 18 18 18 17 15 13 12 12 9 10 12 13 12 13 13 12
18 13 13 21 21 22 22 22 22 22 22 23 19 19 19 18 19 19 19 18 18 16 16 15 14 12 12 13 14 14 14 13 14
12 14 15 19 20 21 22 21 20 20 22 21 21 20 20 19 19 19 18 17 18 18 17 17 16 16 14 14 15 15 16 16 15
15 15 13 9 16 20 20 19 20 18 19 20 21 21 21 21 19 17 18 18 18 18 18 17 18 16 16 17 15 14 16 16 15
10 9 8 7 4 3 4 15 15 19 18 18 18 18 20 19 20 19 19 18 18 17 18 18 16 17 18 18 15 18 19 18 16
7 4 4 6 5 4 2 5 12 16 17 15 14 16 16 18 19 18 19 18 18 18 18 17 18 18 18 19 19 19 21 23 17
2 1 3 4 4 7 9 9 10 11 14 14 13 11 13 14 16 18 17 18 18 17 16 17 17 18 20 19 19 20 20 21 19
6 5 4 5 8 9 6 12 13 11 11 14 14 15 14 13 14 16 17 19 19 17 16 16 17 17 19 21 20 18 19 17 16
13 12 10 10 11 11 10 14 6 9 15 12 15 15 15 12 14 15 17 18 18 15 16 17 14 17 18 20 19 16 18 18 14
10 9 10 9 8 8 7 7 9 3 1 9 15 15 14 14 15 15 15 15 15 15 15 14 16 17 15 17 17 18 18 21 18
11 10 11 12 9 8 8 7 6 9 5 6 4 9 13 13 13 13 12 15 13 14 14 15 14 15 13 12 15 15 13 19 24
11 12 10 13 14 11 8 10 4 6 6 4 4 6 9 11 12 12 11 13 12 11 12 12 12 11 11 11 9 11 15 20 18
11 11 12 13 16 17 10 4 6 5 4 5 6 8 8 8 10 11 11 8 10 10 11 11 11 11 11 9 9 9 8 9 11
14 13 11 14 18 13 13 8 6 6 6 7 8 7 8 9 9 10 10 4 2 8 3 4 10 10 8 9 8 2 5 3 3
12 15 10 16 16 12 14 5 6 7 10 6 7 7 7 8 9 9 9 9 7 18 12 8 12 11 7 6 8 7 8 8 8
14 16 11 15 15 12 14 9 5 7 9 8 7 7 7 7 9 9 10 10 9 8 6 10 14 14 15 16 8 10 11 10 10
Wind_Direction
195 182 172 176 177 180 183 190 184 182 180 185 187 196 198 201 211 204 210 223 224 215 210 199 187 193 196 179 186 202 233 177 193
184 183 170 175 174 178 180 185 187 188 183 187 189 191 196 197 200 211 202 212 222 233 215 246 177 181 186 186 188 187 205 204 189
194 180 174 174 174 177 181 185 187 189 187 188 190 191 195 199 198 204 211 195 215 221 236 214 163 177 183 184 189 187 203 201 214
226 189 174 176 175 177 184 185 183 190 192 186 191 195 196 201 203 200 204 210 203 215 213 225 232 183 182 184 187 196 198 210 203
200 219 171 175 175 176 179 180 186 190 191 196 195 196 199 202 202 204 204 209 210 204 212 207 220 203 189 188 192 195 205 209 220
181 199 191 173 176 177 181 183 185 189 190 196 198 195 199 204 206 205 208 207 210 211 205 214 206 214 204 198 198 201 206 212 217
190 185 217 175 180 182 176 185 186 186 191 195 194 196 199 203 208 209 208 209 210 210 212 205 211 211 205 208 205 205 207 208 214
207 183 200 171 189 177 179 177 182 191 192 190 194 195 199 203 203 207 208 209 211 209 212 213 208 208 213 210 212 211 210 212 212
63 72 85 85 94 120 136 188 174 186 194 192 194 195 201 197 201 200 204 209 211 210 211 213 210 211 211 214 217 209 202 205 215
110 93 96 129 149 167 215 168 185 184 192 193 191 199 196 198 198 201 202 204 208 210 212 209 212 211 213 216 218 213 202 202 214
99 120 343 334 274 236 180 215 214 178 179 187 198 203 200 195 194 199 198 202 206 209 210 212 211 214 214 219 221 210 205 201 214
176 245 281 308 283 287 249 194 211 178 182 183 189 203 210 201 194 194 197 202 204 205 208 211 215 216 218 221 226 209 203 187 212
32 27 15 357 346 337 349 348 291 171 185 175 193 204 206 203 206 199 201 202 204 204 208 214 213 221 223 226 230 216 200 191 218
19 13 351 344 323 311 309 317 327 339 274 210 194 199 196 201 201 209 201 199 201 205 208 211 218 224 225 229 227 230 196 192 216
5 359 351 338 322 291 306 299 289 288 276 254 216 194 189 195 201 202 204 200 201 203 205 212 217 222 230 228 229 225 195 194 214
347 349 354 331 320 308 274 274 298 277 260 267 276 199 191 187 194 195 208 196 202 202 206 214 216 224 225 230 240 221 199 194 211
343 340 340 323 313 292 280 289 239 241 266 277 256 226 195 184 185 188 195 203 194 202 207 211 221 215 229 229 220 234 200 200 207
329 321 337 317 302 338 325 351 348 353 284 220 247 215 194 191 191 183 188 115 251 206 115 269 214 221 225 219 228 137 60 64 270
312 308 333 307 305 317 311 316 313 314 312 260 219 213 193 199 199 179 190 145 104 41 46 35 57 55 79 78 87 85 70 57 41
291 291 303 303 307 301 302 272 298 291 295 268 221 223 203 204 205 178 189 159 151 132 60 51 52 50 49 62 89 81 91 86 78